Regional Weather Roundup
Issued by NWS

Home | Current Version | Previous Version | Text Only | Print | Product List | Glossary On
Versions: 1 2 3 4 5 6 7 8 9 10 11 12 13 14 15 16 17 18 19 20 21 22 23 24 25 26 27 28 29 30 31 32 33 34 35 36 37 38 39 40 41 42 43 44 45 46 47 48 49 50
000
ASUS46 KSTO 250204
RWRCA

NORTHERN AND CENTRAL CA REGIONAL WEATHER ROUNDUP
NATIONAL WEATHER SERVICE SACRAMENTO CA
700 PM PDT FRI MAR 24 2017

NOTE: FAIR INDICATES FEW OR NO CLOUDS BELOW 12,000 FEET WITH NO
SIGNIFICANT WEATHER AND/OR OBSTRUCTIONS TO VISIBILITY.

CAZ001-003-250300-
NORTHWEST AREA

CITY           SKY/WX    TMP DP  RH WIND       PRES   REMARKS
CRESCENT CITY  CLOUDY    53  50  89 S14       30.13R
UKIAH          MOCLDY    57  49  74 CALM      30.13R
$$

CAZ006-505>513-250300-
BAY AREA

CITY           SKY/WX    TMP DP  RH WIND       PRES   REMARKS
SANTA ROSA     CLOUDY    57  49  74 S6        30.13S
SAN RAFAEL     N/A       58  MM  MM MISG
NAPA           CLOUDY    58  53  84 SE6       30.15S
CONCORD        LGT RAIN  57  53  86 SW7       30.16S
OAKLAND CITY   N/A      MM  MM  MM MISG
OAKLAND        CLOUDY    57  56  96 SE6       30.16F
SAN FRAN CITY  N/A       54  MM  89 MISG
SAN FRAN ARPT  CLOUDY    57  50  77 W3        30.15F
LIVERMORE      CLOUDY    54  51  90 SW3       30.15S
HAYWARD        CLOUDY    57  53  86 SE3       30.15F
REDWOOD CITY   N/A       MM  MM  MM MISG
MOFFETT ARPT   CLOUDY    55  53  93 SE3       30.17S
SAN JOSE ARPT  CLOUDY    55  52  89 NE7       30.16F
$$
CAZ034-037-514>518-250300-
CENTRAL COAST

CITY           SKY/WX    TMP DP  RH WIND       PRES   REMARKS
WATSONVILLE    CLOUDY    54  54 100 NE7       30.17F
SALINAS        CLOUDY    57  52  83 CALM      30.16F
MONTEREY       CLOUDY    58  53  84 SE7       30.17R
SAN LUIS OBISP CLOUDY    60  52  74 W5        30.21R
SANTA MARIA    CLOUDY    57  51  80 NW7       30.21F
$$
CAZ015-016-250300-
NORTHERN SACRAMENTO VALLEY

CITY           SKY/WX    TMP DP  RH WIND       PRES   REMARKS
REDDING        LGT RAIN  51  49  92 S21       30.14R FOG
RED BLUFF      RAIN      51  49  92 SE16      30.16R FOG
OROVILLE       CLOUDY    53  48  83 SE13      30.19S
$$
CAZ016>018-250300-
SOUTHERN SACRAMENTO VALLEY

CITY           SKY/WX    TMP DP  RH WIND       PRES   REMARKS
AUBURN         CLOUDY    48  45  87 SE8       30.18S
BEALE AFB      CLOUDY    53  48  83 SE8       30.16S
LINCOLN        CLOUDY    54  43  66 SE10      30.16S
MARYSVILLE     CLOUDY    53  47  79 SE9       30.18S
SAC INTL ARPT  CLOUDY    54  49  83 SE16G24   30.17R
MATHER AIRPORT NOT AVBL
DOWNTOWN SAC   N/A       55  MM  MM MISG
SAC EXEC ARPT  CLOUDY    53  49  86 SE7       30.18S
VACAVILLE      CLOUDY    54  53  97 SE9       30.17S
TRAVIS AFB     CLOUDY    54  53  96 SE13      30.15R
$$
CAZ019>021-250300-
SAN JOAQUIN VALLEY

CITY           SKY/WX    TMP DP  RH WIND       PRES   REMARKS
STOCKTON       LGT RAIN  54  53  97 E8        30.17S FOG
MODESTO        CLOUDY    57  48  72 SE5       30.17S
MERCED         CLOUDY    54  46  74 SE8       30.18S
LEMOORE        LGT RAIN  56  51  84 NE9       30.20R
FRESNO         LGT RAIN  57  47  69 E8        30.20R
HANFORD        LGT RAIN  59  48  67 N5        30.18F
PORTERVILLE    CLOUDY    59  52  77 CALM      30.18S
BAKERSFIELD    CLOUDY    66  44  45 N9        30.17R
$$
CAZ011-012-071-250300-
NORTHERN MOUNTAINS

CITY           SKY/WX    TMP DP  RH WIND       PRES   REMARKS
YREKA          LGT RAIN  47  38  71 S12       30.06R
MOUNT SHASTA   CLOUDY    40  36  86 E6        30.09S
ALTURAS        MOCLDY    41  34  76 W8        30.08R
$$
CAZ011-012-071-250300-
SIERRA NEVADA MTNS

CITY           SKY/WX    TMP DP  RH WIND       PRES   REMARKS
BLUE CANYON    LGT RAIN  34  34 100 S8        30.15S VSB 1/4 WCI  27
TRUCKEE        CLOUDY    36  32  87 SW12      30.10S WCI  27
TAHOE VLY ARPT LGT RAIN  36  32  85 SE10      30.10S WCI  28
MAMMOTH LAKES  MIX PCPN  34  33  99 NE12      30.18S WCI  25
$$



USA.gov is the U.S. government's official web portal to all federal, state and local government web resources and services.